Wind_Speed
25 26 26 26 26 27 28 27 25 24 22 21 21 19 19 19 16 16 17 17 17 17 17 17 17 18 18 19 19 19 19 19 19 19 19 19 18 18 16 16 16 16
27 28 28 26 25 26 28 27 27 27 24 22 22 20 20 20 18 18 18 16 16 16 18 18 18 19 20 20 21 21 20 19 19 19 19 19 18 18 17 17 17 17
25 29 30 29 26 26 27 27 28 28 25 23 22 21 20 20 19 18 18 16 16 17 18 19 19 20 20 21 22 22 21 20 19 19 19 18 18 18 17 18 18 18
21 25 30 32 29 25 26 27 26 26 25 24 22 21 20 20 19 18 19 19 18 17 17 18 18 18 19 21 22 21 21 21 19 18 18 18 18 18 18 18 18 18
22 23 25 28 30 27 25 25 24 24 26 27 25 23 21 19 18 18 19 19 18 17 17 17 17 18 19 20 21 22 22 21 20 20 19 18 17 18 18 18 18 18
23 24 22 21 24 28 26 23 23 22 23 26 26 23 21 19 18 18 18 18 18 17 18 18 18 18 19 20 20 20 20 20 21 21 18 17 17 17 17 17 17 17
24 23 21 20 19 25 29 26 23 21 20 23 25 23 21 19 18 18 17 17 18 19 19 20 20 19 20 20 19 19 19 20 19 17 16 16 17 17 16 15 16 16
24 22 21 21 21 20 28 29 24 22 22 23 24 23 22 20 19 19 19 19 20 20 20 21 21 20 21 20 19 19 19 19 18 17 17 17 16 16 15 15 15 15
21 21 20 19 22 17 20 27 26 24 23 23 22 22 22 22 21 20 20 21 21 21 22 23 22 20 19 18 18 19 19 19 17 17 17 17 17 16 16 15 15 15
19 20 19 16 17 17 12 18 23 22 21 22 23 22 22 22 21 21 22 22 22 24 25 25 23 21 19 17 18 20 20 19 17 17 17 17 17 17 16 16 15 14
19 19 18 16 15 15 13 12 14 17 18 22 24 24 24 22 21 22 23 23 23 25 26 25 24 22 20 18 20 21 20 18 17 18 18 17 16 16 16 15 14 14
21 19 18 16 15 14 13 13 13 16 18 21 23 24 24 23 22 23 24 24 24 24 26 26 25 23 21 19 20 20 19 18 17 17 17 16 16 16 15 14 14 13
21 20 18 16 15 14 15 16 17 18 20 20 21 22 23 23 23 24 25 25 23 24 26 26 25 24 21 20 20 20 19 18 18 17 16 16 16 16 15 15 14 13
22 21 19 17 15 15 16 18 20 21 22 22 21 22 23 23 23 24 24 24 23 25 28 27 24 23 21 20 20 20 19 19 18 17 16 16 16 15 15 15 14 14
23 21 20 18 17 16 16 18 21 23 24 23 22 23 23 23 24 23 24 24 24 26 29 28 24 22 21 21 21 20 20 19 18 17 16 15 15 15 15 14 14 14
24 23 21 19 19 17 17 19 22 24 25 25 25 25 24 24 24 24 25 26 26 28 30 29 25 23 22 21 21 20 20 19 17 16 15 15 15 15 14 14 14 14
25 24 23 20 20 19 18 19 21 23 26 27 26 26 25 24 24 24 26 29 29 29 31 29 25 23 22 21 21 20 19 18 16 16 15 15 15 15 15 14 14 14
25 26 24 22 20 19 17 18 21 23 25 26 25 24 25 25 23 23 27 29 29 29 29 28 25 23 21 20 21 20 19 17 17 16 16 15 15 15 15 15 15 14
25 26 25 22 20 18 14 14 18 20 22 23 24 25 26 24 22 23 26 28 27 28 28 27 26 23 21 21 22 20 18 18 17 17 17 16 16 15 14 14 14 14
25 24 22 20 18 16 12 12 14 18 20 22 24 25 25 25 24 26 28 28 28 29 28 28 27 24 22 23 23 20 19 18 18 18 17 17 17 17 15 14 14 14
23 22 19 16 15 14 13 12 13 15 19 21 23 25 25 25 26 27 29 31 30 29 29 29 28 25 24 24 22 20 19 19 18 18 18 17 18 18 17 16 16 16
22 22 19 16 14 13 12 14 15 15 18 21 23 25 25 25 28 29 30 32 31 28 28 28 27 26 25 24 21 20 20 19 18 18 17 17 19 19 18 18 17 17
22 23 21 18 16 15 11 12 15 15 16 17 20 26 28 28 31 32 31 32 30 27 27 27 27 27 26 23 20 19 19 18 17 17 17 18 19 19 19 19 18 18
21 23 22 19 18 16 13 10 11 11 13 13 15 23 29 29 31 31 29 29 28 27 28 29 30 29 26 23 21 21 20 19 17 17 18 19 19 18 19 20 20 21
19 21 22 21 17 14 12 10 8 8 12 11 12 18 24 25 27 28 28 26 25 27 31 32 32 31 26 23 23 21 20 19 17 17 18 18 18 17 17 20 22 22
19 20 21 20 15 12 12 12 9 5 9 10 10 15 22 24 24 25 28 27 24 25 29 29 30 30 25 23 25 23 19 17 16 17 17 16 17 17 17 21 21 19
Wind_Direction
273 271 271 269 261 256 255 254 254 257 261 267 271 273 276 277 268 253 239 224 218 220 221 220 215 212 216 222 222 220 218 213 210 212 214 217 218 219 221 223 222 222
274 272 272 270 258 249 250 250 250 252 256 263 271 273 272 273 271 266 254 232 219 221 222 219 215 215 219 223 222 218 214 212 210 210 213 216 218 219 220 221 222 223
281 276 272 270 260 245 241 244 248 252 255 259 269 274 272 269 268 267 262 241 219 218 221 219 216 219 222 224 224 219 211 210 213 212 212 215 217 217 219 221 221 223
297 288 275 268 263 252 242 242 247 252 254 255 258 264 267 265 263 262 258 243 223 214 218 220 218 220 221 222 224 222 214 209 210 210 209 210 214 216 218 221 221 223
310 310 295 274 264 257 246 243 247 251 252 250 248 253 259 260 260 260 257 247 231 217 215 217 216 215 219 220 221 223 220 213 206 204 204 205 211 216 218 220 221 223
312 320 321 297 269 255 245 239 242 246 246 242 241 250 257 258 260 259 255 244 232 221 214 213 212 212 216 219 220 223 223 219 212 206 201 203 211 215 217 220 221 222
311 316 321 318 292 258 241 236 236 235 233 232 237 246 252 257 260 257 250 239 229 223 214 209 209 211 214 216 219 223 223 222 219 211 204 208 214 215 215 219 220 221
308 310 312 320 317 274 237 229 231 228 226 231 237 240 243 251 258 254 246 236 227 221 213 208 209 210 211 212 215 221 223 221 218 211 207 210 216 217 216 218 220 220
303 303 304 311 322 302 241 227 230 227 227 235 241 240 241 248 254 250 244 237 228 220 211 207 207 206 204 208 215 220 221 220 218 214 212 211 214 217 217 217 219 220
301 298 299 299 307 311 280 242 233 225 227 238 242 241 243 247 249 245 242 239 232 222 211 203 201 198 197 208 221 222 219 216 215 215 214 213 214 216 217 216 218 221
303 297 297 294 289 293 294 272 245 232 235 242 243 240 241 243 244 241 238 236 233 226 212 200 197 195 197 212 224 223 218 213 211 212 213 212 215 216 217 216 217 219
311 304 298 294 287 278 271 264 257 251 249 249 245 241 241 242 242 240 234 228 227 224 212 201 197 196 200 216 224 223 220 216 213 213 212 211 213 215 217 216 215 216
317 314 308 301 290 274 257 247 246 249 249 247 244 241 242 245 246 245 238 226 218 215 209 202 198 198 206 219 222 221 221 218 216 215 213 213 213 214 216 214 214 215
322 318 315 308 295 276 258 245 241 244 245 243 242 243 242 243 246 247 240 228 217 211 207 203 201 203 210 219 221 221 221 219 217 214 212 213 213 213 215 215 214 214
324 320 315 311 302 286 265 248 240 241 243 241 239 239 237 237 240 241 235 227 219 213 206 202 204 208 212 217 220 220 219 218 217 214 210 209 209 211 214 214 212 211
323 319 316 312 305 295 277 256 242 238 240 238 230 225 227 231 233 233 231 225 218 211 205 202 204 210 213 216 217 216 215 214 213 210 206 205 207 209 210 209 207 206
322 318 316 313 307 298 284 265 249 239 238 237 229 221 221 226 226 226 228 224 215 205 201 202 206 211 214 216 215 212 209 206 205 205 203 203 205 205 205 204 202 203
323 320 319 318 313 304 288 266 252 243 240 240 236 228 223 224 224 223 224 222 213 201 199 203 207 210 214 215 211 207 202 198 198 199 199 201 203 201 201 203 202 204
324 323 323 324 321 314 297 268 253 247 241 238 233 228 226 225 223 222 222 219 209 200 201 206 205 208 216 215 207 200 197 195 196 196 196 198 199 198 200 203 205 208
325 326 324 322 323 319 301 273 257 250 243 235 227 223 224 224 219 217 218 217 208 201 204 205 202 206 216 212 201 195 194 195 196 195 195 195 197 200 202 204 208 212
327 329 324 315 316 313 296 277 260 250 241 234 227 223 224 221 215 213 214 213 208 203 203 203 200 205 212 205 195 192 194 196 196 196 196 196 199 203 205 206 211 214
327 332 333 325 320 316 297 273 260 249 237 232 229 226 222 216 212 213 213 209 205 200 200 201 202 205 206 198 191 190 193 194 194 196 197 197 200 204 208 210 212 214
327 332 339 339 334 334 320 279 261 246 233 239 240 228 220 214 212 212 208 202 199 197 197 201 206 206 198 190 188 191 193 191 191 195 197 199 202 207 210 213 211 208
328 332 340 344 341 342 341 314 282 247 238 266 265 232 217 212 209 207 201 197 196 194 195 200 206 203 193 186 188 192 192 190 190 195 200 201 205 210 212 214 208 201
328 332 340 346 346 349 355 347 319 259 242 264 263 229 214 208 206 203 199 198 198 195 195 198 200 198 191 187 191 195 194 192 192 199 205 205 207 211 210 205 199 197
326 329 340 349 353 360 10 9 355 294 230 225 234 228 218 210 205 202 198 196 196 195 195 196 197 196 192 191 195 195 193 193 197 206 213 213 208 205 203 203 205 210
Height
3127 3127 3127 3129 3129 3129 3129 3129 3129 3128 3128 3128 3129 3130 3130 3131 3134 3135 3134 3134 3135 3135 3137 3138 3138 3139 3140 3141 3142 3142 3143 3145 3146 3147 3149 3150 3152 3153 3153 3154 3155 3156
3123 3123 3124 3124 3125 3125 3126 3126 3126 3125 3126 3126 3127 3128 3129 3129 3131 3132 3133 3133 3133 3134 3135 3136 3137 3138 3139 3140 3141 3141 3142 3143 3145 3147 3148 3149 3150 3151 3152 3153 3153 3154
3121 3120 3120 3121 3121 3122 3122 3123 3123 3124 3124 3125 3125 3126 3127 3128 3128 3129 3130 3131 3131 3132 3132 3134 3135 3136 3137 3139 3140 3141 3141 3142 3143 3145 3146 3147 3148 3149 3150 3151 3151 3152
3119 3118 3117 3117 3118 3120 3120 3121 3122 3122 3122 3122 3123 3123 3124 3125 3126 3126 3127 3128 3128 3129 3130 3131 3132 3134 3135 3137 3140 3141 3141 3140 3141 3142 3144 3145 3146 3147 3148 3149 3150 3151
3117 3116 3114 3114 3115 3117 3119 3119 3120 3120 3120 3120 3120 3120 3121 3122 3123 3123 3124 3124 3124 3125 3127 3129 3130 3132 3134 3136 3138 3140 3140 3140 3140 3140 3141 3143 3144 3145 3146 3147 3148 3149
3114 3113 3112 3111 3111 3113 3115 3116 3117 3117 3117 3118 3118 3118 3119 3120 3120 3121 3121 3122 3122 3123 3124 3126 3128 3129 3131 3133 3135 3138 3139 3139 3138 3138 3138 3140 3142 3143 3145 3146 3147 3148
3111 3111 3109 3108 3108 3108 3110 3112 3113 3113 3114 3115 3115 3116 3117 3117 3118 3119 3119 3120 3120 3121 3122 3124 3125 3127 3129 3131 3133 3135 3137 3137 3137 3138 3138 3139 3140 3142 3143 3144 3145 3146
3108 3107 3106 3105 3104 3103 3105 3107 3109 3110 3111 3112 3113 3114 3114 3115 3116 3116 3117 3117 3118 3119 3120 3121 3123 3124 3126 3128 3130 3133 3135 3136 3136 3136 3137 3138 3139 3140 3141 3142 3143 3145
3106 3104 3104 3103 3102 3101 3102 3104 3106 3108 3109 3111 3112 3112 3112 3113 3113 3113 3114 3115 3115 3116 3117 3119 3120 3122 3125 3127 3129 3131 3132 3133 3134 3134 3135 3137 3138 3138 3140 3141 3142 3143
3104 3102 3101 3102 3101 3101 3101 3102 3104 3105 3107 3108 3109 3110 3110 3110 3110 3110 3111 3112 3113 3114 3115 3116 3118 3120 3123 3125 3127 3129 3130 3131 3132 3133 3133 3135 3136 3137 3138 3139 3140 3142
3102 3100 3099 3099 3100 3100 3100 3101 3102 3103 3104 3105 3106 3106 3106 3107 3107 3107 3108 3109 3110 3111 3113 3114 3116 3118 3121 3123 3125 3127 3127 3128 3129 3131 3131 3133 3134 3135 3136 3138 3139 3140
3099 3098 3098 3097 3098 3098 3098 3099 3100 3101 3101 3102 3103 3103 3103 3104 3104 3104 3105 3106 3107 3109 3111 3112 3113 3116 3119 3121 3123 3124 3124 3125 3127 3128 3130 3131 3132 3133 3134 3136 3137 3139
3097 3096 3096 3095 3095 3095 3096 3096 3096 3096 3097 3098 3099 3100 3100 3101 3101 3102 3103 3104 3104 3106 3108 3109 3111 3114 3116 3118 3120 3122 3123 3124 3126 3127 3128 3129 3130 3131 3133 3134 3135 3137
3096 3094 3093 3093 3092 3092 3092 3092 3092 3092 3092 3093 3095 3096 3097 3097 3098 3100 3101 3103 3103 3104 3106 3108 3110 3112 3114 3116 3118 3120 3121 3123 3124 3125 3126 3127 3129 3130 3131 3132 3134 3135
3094 3092 3091 3090 3089 3088 3088 3088 3088 3088 3088 3089 3090 3092 3093 3094 3095 3096 3098 3100 3101 3102 3103 3106 3108 3110 3112 3114 3116 3118 3119 3121 3122 3123 3124 3125 3127 3128 3129 3131 3132 3134
3091 3090 3089 3088 3087 3086 3085 3084 3084 3083 3084 3085 3086 3088 3089 3091 3092 3093 3095 3096 3097 3099 3101 3104 3106 3108 3110 3112 3114 3116 3117 3118 3120 3121 3122 3123 3125 3126 3128 3129 3131 3132
3089 3087 3086 3085 3084 3083 3082 3081 3081 3081 3081 3082 3084 3085 3087 3087 3089 3090 3092 3093 3093 3095 3098 3102 3104 3106 3108 3110 3112 3114 3115 3116 3118 3119 3120 3122 3123 3125 3126 3128 3129 3130
3087 3085 3083 3082 3081 3079 3078 3077 3078 3078 3079 3080 3083 3084 3084 3084 3086 3088 3089 3091 3092 3093 3096 3100 3102 3104 3106 3108 3110 3111 3113 3114 3115 3117 3119 3120 3122 3123 3125 3126 3128 3129
3086 3083 3081 3079 3078 3077 3075 3074 3074 3075 3076 3077 3079 3080 3081 3082 3085 3087 3087 3089 3091 3093 3095 3098 3100 3102 3104 3106 3108 3109 3111 3112 3114 3115 3117 3118 3120 3122 3123 3125 3126 3127
3085 3082 3079 3077 3076 3074 3073 3072 3072 3073 3073 3074 3075 3077 3079 3080 3082 3084 3086 3087 3089 3091 3094 3096 3098 3100 3103 3104 3106 3107 3108 3110 3112 3113 3115 3117 3118 3120 3122 3123 3124 3125
3083 3081 3079 3076 3074 3073 3071 3071 3071 3071 3071 3072 3073 3074 3076 3078 3079 3082 3084 3085 3087 3090 3092 3094 3096 3099 3101 3103 3104 3105 3107 3109 3110 3112 3114 3115 3117 3119 3120 3121 3122 3124
3082 3080 3078 3076 3074 3071 3070 3069 3069 3069 3069 3070 3071 3072 3074 3075 3077 3079 3081 3082 3085 3088 3091 3093 3096 3098 3100 3101 3102 3104 3106 3108 3109 3111 3112 3114 3116 3117 3119 3120 3121 3122
3081 3078 3077 3075 3073 3070 3068 3067 3067 3068 3068 3069 3069 3070 3071 3073 3074 3076 3078 3080 3084 3086 3089 3092 3095 3097 3098 3099 3101 3102 3105 3106 3108 3109 3111 3113 3114 3115 3117 3118 3119 3121
3080 3077 3075 3073 3071 3070 3068 3066 3066 3067 3067 3067 3068 3068 3070 3072 3073 3074 3077 3080 3082 3085 3087 3090 3093 3095 3096 3097 3099 3101 3103 3105 3107 3109 3110 3111 3112 3113 3115 3116 3118 3119
3079 3077 3074 3072 3071 3069 3068 3066 3065 3065 3065 3066 3067 3068 3070 3072 3072 3073 3077 3079 3081 3084 3086 3088 3091 3093 3094 3096 3098 3100 3102 3104 3106 3108 3109 3110 3111 3112 3113 3115 3116 3117
3078 3076 3074 3072 3071 3069 3068 3067 3065 3064 3064 3065 3067 3068 3069 3070 3072 3074 3076 3079 3081 3085 3087 3088 3090 3092 3094 3095 3097 3099 3101 3103 3105 3106 3107 3109 3110 3111 3112 3113 3114 3115